Location: Hurecourt
(47.9030°N, 6.0653°E)
Time: 08:48:16
(UTC+00:00)

Meteor 1-20 Rocket - Pass Details

Date: 14 July 2020
Orbit: 820 x 891 km, 81.2° (Epoch: 14 August)

Event Time Altitude Azimuth Distance (km) Brightness Sun altitude
Exits shadow 00:58:15 31° 213° (SSW) 1,431 4.8 -18.4°
Maximum altitude 01:00:53 64° 284° (WNW) 939 4.4 -18.2°
Drops below altitude 10° 01:06:33 10° 6° (N) 2,516 7.8 -17.9°
Sets 01:09:03 0° 10° (N) 3,468 9.0 -17.8°
